• In Netherlands
  • List of Countries
  • For 7 days
  • Water Temperature
  • Satellite Maps
  • Weather Map
  • Weather Widgets
  • user-avatar
    Login

    Hourly Weather Bansko

    Today, 16 January, Tuesday

    Time Temperature Precipitation Wind Pressure Humidity
    00:00 +2°C° 0.3 mm 2 mps 723 mmHg 91%
    01:00 +3°C° 0.3 mm 2 mps 723 mmHg 92%
    02:00 +3°C° 0 mm 1 mps 723 mmHg 91%
    03:00 +3°C° 0.1 mm 1 mps 723 mmHg 91%
    04:00 +4°C° 0.1 mm 1 mps 722 mmHg 91%
    05:00 +3°C° 0.1 mm 2 mps 722 mmHg 91%
    06:00 +4°C° 0 mm 1 mps 721 mmHg 91%
    07:00 +4°C° 0 mm 1 mps 721 mmHg 91%
    08:00 +3°C° 0 mm 1 mps 721 mmHg 92%
    09:00 +5°C° 0 mm 1 mps 720 mmHg 88%
    10:00 +5°C° 0 mm 2 mps 720 mmHg 85%
    11:00 +6°C° 0 mm 2 mps 720 mmHg 81%
    12:00 +7°C° 0 mm 2 mps 719 mmHg 79%
    13:00 +8°C° 0 mm 2 mps 719 mmHg 76%
    14:00 +8°C° 0 mm 2 mps 718 mmHg 74%
    15:00 +7°C° 0 mm 2 mps 718 mmHg 77%
    16:00 +7°C° 0 mm 2 mps 717 mmHg 80%
    17:00 +6°C° 0 mm 2 mps 717 mmHg 82%
    18:00 +6°C° 0 mm 2 mps 716 mmHg 84%
    19:00 +5°C° 0 mm 2 mps 716 mmHg 86%
    20:00 +4°C° 0 mm 2 mps 716 mmHg 88%
    21:00 +4°C° 0 mm 2 mps 716 mmHg 88%
    22:00 +4°C° 0 mm 2 mps 716 mmHg 88%
    23:00 +4°C° 0 mm 2 mps 715 mmHg 88%

    Tomorrow, 17 January, Wednesday

    Time Temperature Precipitation Wind Pressure Humidity
    00:00 +4°C° 0 mm 2 mps 715 mmHg 88%
    01:00 +4°C° 0 mm 2 mps 715 mmHg 88%
    02:00 +4°C° 0 mm 2 mps 715 mmHg 88%
    03:00 +4°C° 0 mm 2 mps 714 mmHg 88%
    04:00 +4°C° 0 mm 2 mps 713 mmHg 89%
    05:00 +4°C° 0 mm 2 mps 713 mmHg 89%
    06:00 +4°C° 0 mm 2 mps 713 mmHg 89%
    07:00 +4°C° 0 mm 2 mps 712 mmHg 89%
    08:00 +4°C° 0 mm 2 mps 712 mmHg 89%
    09:00 +4°C° 0 mm 3 mps 712 mmHg 84%
    10:00 +7°C° 0 mm 3 mps 711 mmHg 80%
    11:00 +8°C° 0 mm 4 mps 711 mmHg 75%
    12:00 +8°C° 0 mm 4 mps 709 mmHg 75%
    13:00 +8°C° 0 mm 5 mps 708 mmHg 75%
    14:00 +9°C° 0 mm 5 mps 707 mmHg 74%
    15:00 +8°C° 0.2 mm 5 mps 706 mmHg 76%
    16:00 +8°C° 0.2 mm 5 mps 705 mmHg 79%
    17:00 +7°C° 0.2 mm 5 mps 704 mmHg 81%
    18:00 +7°C° 1 mm 5 mps 704 mmHg 84%
    19:00 +7°C° 1 mm 4 mps 704 mmHg 87%
    20:00 +7°C° 1 mm 3 mps 704 mmHg 90%
    21:00 +5°C° 1.1 mm 4 mps 705 mmHg 87%
    22:00 +3°C° 1.1 mm 5 mps 706 mmHg 83%
    23:00 +3°C° 1.1 mm 5 mps 706 mmHg 80%

    Day after tomorrow, 18 January, Thursday

    Time Temperature Precipitation Wind Pressure Humidity
    00:00 +1°C° 0.1 mm 5 mps 707 mmHg 79%
    01:00 0°C° 0.1 mm 5 mps 708 mmHg 78%
    02:00 -1°C° 0.1 mm 5 mps 709 mmHg 76%
    03:00 -2°C° 0 mm 5 mps 710 mmHg 75%
    04:00 -2°C° 0 mm 5 mps 711 mmHg 74%
    05:00 -4°C° 0 mm 5 mps 712 mmHg 72%
    06:00 -4°C° 0 mm 5 mps 713 mmHg 72%
    07:00 -4°C° 0 mm 5 mps 714 mmHg 72%
    08:00 -5°C° 0 mm 5 mps 715 mmHg 72%
    09:00 -4°C° 0 mm 6 mps 716 mmHg 68%
    10:00 -3°C° 0 mm 7 mps 717 mmHg 64%
    11:00 -1°C° 0 mm 7 mps 718 mmHg 59%
    12:00 -1°C° 0 mm 7 mps 718 mmHg 57%
    13:00 0°C° 0 mm 7 mps 718 mmHg 55%
    14:00 +1°C° 0 mm 6 mps 718 mmHg 54%
    15:00 +1°C° 0 mm 5 mps 718 mmHg 56%
    16:00 0°C° 0 mm 4 mps 719 mmHg 58%
    17:00 +2°C° 0 mm 2 mps 719 mmHg 61%
    18:00 +1°C° 0 mm 2 mps 719 mmHg 62%
    19:00 +1°C° 0 mm 2 mps 719 mmHg 64%
    20:00 -1°C° 0 mm 2 mps 720 mmHg 66%
    21:00 -1°C° 0 mm 2 mps 719 mmHg 63%
    22:00 -1°C° 0 mm 2 mps 719 mmHg 61%
    23:00 -1°C° 0 mm 2 mps 719 mmHg 59%

    19 January, Friday

    Time Temperature Precipitation Wind Pressure Humidity
    00:00 -1°C° 0 mm 2 mps 719 mmHg 58%
    01:00 -1°C° 0 mm 2 mps 719 mmHg 57%
    02:00 -1°C° 0 mm 2 mps 718 mmHg 57%
    03:00 -1°C° 0 mm 2 mps 718 mmHg 57%
    04:00 -1°C° 0 mm 2 mps 718 mmHg 58%
    05:00 -1°C° 0 mm 2 mps 717 mmHg 58%
    06:00 -1°C° 0 mm 2 mps 717 mmHg 58%
    07:00 +1°C° 0 mm 2 mps 718 mmHg 58%
    08:00 +1°C° 0 mm 2 mps 718 mmHg 59%
    09:00 +3°C° 0 mm 2 mps 718 mmHg 55%
    10:00 +5°C° 0 mm 2 mps 718 mmHg 52%
    11:00 +7°C° 0 mm 2 mps 718 mmHg 49%
    12:00 +7°C° 0 mm 2 mps 717 mmHg 51%
    13:00 +8°C° 0 mm 2 mps 717 mmHg 52%
    14:00 +9°C° 0 mm 2 mps 716 mmHg 54%
    15:00 +8°C° 0 mm 2 mps 716 mmHg 59%
    16:00 +7°C° 0 mm 2 mps 716 mmHg 64%
    17:00 +6°C° 0 mm 2 mps 716 mmHg 69%
    18:00 +5°C° 0 mm 2 mps 716 mmHg 71%
    19:00 +4°C° 0 mm 2 mps 716 mmHg 72%
    20:00 +3°C° 0 mm 2 mps 717 mmHg 74%
    21:00 +3°C° 0 mm 2 mps 716 mmHg 75%
    22:00 +3°C° 0 mm 2 mps 716 mmHg 76%
    23:00 +3°C° 0 mm 2 mps 716 mmHg 77%

    20 January, Saturday

    Time Temperature Precipitation Wind Pressure Humidity
    00:00 +3°C° 0 mm 2 mps 716 mmHg 79%
    01:00 +3°C° 0 mm 2 mps 716 mmHg 80%
    02:00 +3°C° 0 mm 2 mps 716 mmHg 81%
    03:00 +3°C° 0 mm 2 mps 715 mmHg 81%
    04:00 +3°C° 0 mm 2 mps 715 mmHg 82%
    05:00 +3°C° 0 mm 2 mps 715 mmHg 83%
    06:00 +3°C° 0 mm 2 mps 714 mmHg 83%
    07:00 +3°C° 0 mm 2 mps 714 mmHg 83%
    08:00 +3°C° 0 mm 2 mps 714 mmHg 84%
    09:00 +4°C° 0 mm 3 mps 714 mmHg 79%
    10:00 +6°C° 0 mm 4 mps 714 mmHg 75%
    11:00 +8°C° 0 mm 4 mps 713 mmHg 71%
    12:00 +10°C° 0 mm 4 mps 713 mmHg 71%
    13:00 +9°C° 0 mm 5 mps 712 mmHg 70%
    14:00 +9°C° 0 mm 5 mps 712 mmHg 70%
    15:00 +10°C° 0 mm 4 mps 711 mmHg 74%
    16:00 +8°C° 0 mm 4 mps 711 mmHg 77%
    17:00 +8°C° 0 mm 3 mps 711 mmHg 81%
    18:00 +8°C° 0 mm 3 mps 711 mmHg 83%
    19:00 +8°C° 0 mm 3 mps 710 mmHg 85%
    20:00 +7°C° 0 mm 3 mps 710 mmHg 87%
    21:00 +7°C° 0.4 mm 3 mps 710 mmHg 88%
    22:00 +7°C° 0.4 mm 3 mps 709 mmHg 88%
    23:00 +7°C° 0.4 mm 3 mps 709 mmHg 89%

    21 January, Sunday

    Time Temperature Precipitation Wind Pressure Humidity
    00:00 +7°C° 0.7 mm 3 mps 709 mmHg 90%
    01:00 +7°C° 0.7 mm 3 mps 708 mmHg 90%
    02:00 +7°C° 0.7 mm 3 mps 708 mmHg 91%
    03:00 +7°C° 1 mm 3 mps 707 mmHg 91%
    04:00 +7°C° 1 mm 3 mps 707 mmHg 91%
    05:00 +7°C° 1 mm 3 mps 707 mmHg 91%
    06:00 +7°C° 1.6 mm 3 mps 707 mmHg 91%
    07:00 +7°C° 1.6 mm 3 mps 706 mmHg 91%
    08:00 +5°C° 1.6 mm 3 mps 706 mmHg 91%
    09:00 +5°C° 2.2 mm 3 mps 706 mmHg 91%
    10:00 +5°C° 2.2 mm 3 mps 705 mmHg 91%
    11:00 +5°C° 2.2 mm 3 mps 705 mmHg 91%
    12:00 +4°C° 2.1 mm 3 mps 704 mmHg 91%
    13:00 +4°C° 2.1 mm 4 mps 704 mmHg 90%
    14:00 +4°C° 2.1 mm 4 mps 703 mmHg 90%
    15:00 +3°C° 1.9 mm 4 mps 703 mmHg 90%
    16:00 +1°C° 1.9 mm 4 mps 703 mmHg 90%
    17:00 0°C° 1.9 mm 4 mps 703 mmHg 90%
    18:00 -1°C° 1.7 mm 4 mps 703 mmHg 91%
    19:00 -1°C° 1.7 mm 5 mps 703 mmHg 91%
    20:00 -2°C° 1.7 mm 5 mps 703 mmHg 92%
    21:00 -2°C° 0.9 mm 4 mps 703 mmHg 92%
    22:00 -3°C° 0.9 mm 4 mps 704 mmHg 91%
    23:00 -3°C° 0.9 mm 4 mps 704 mmHg 91%
    Show more